User: anonymous   Login
Location: Handeloh
(53.2500°N, 9.8330°E)
Time: 02:53:24
(UTC+01:00)
Language:

Explorer 11/Cluster Stage 4 - Orbit

View from above orbital plane
View from above orbital plane
View from above satellite
View from above satellite

Ground track
Ground track

The orbit data is extracted from the following two-line orbital elements,

1   107U 61013A   19326.15549671  .00000635  00000-0  66584-4 0  9995
2   107  28.7891 277.7768 0546987 353.7226   5.6708 14.08857857936373
Epoch (UTC): 22 November 2019 03:43:54
Eccentricity: 0.0546987
inclination: 28.7891°
perigee height: 467 km
apogee height: 1259 km
right ascension of ascending node: 277.7768°
argument of perigee: 353.7226°
revolutions per day: 14.08857857
mean anomaly at epoch: 5.6708°
orbit number at epoch: 93637

The dashed part of the orbit path shows where the satellite is in the earth's shadow,  

DLR